Content
SEND FEEDBACK

Daily
Averages
Monthly
Summary
United States of America

SIMPSON, LOUISIANA


Home > North America > United States > Louisiana
Elevation: 300 feet     Latitude: 31 16N     Longitude: 093 01W

WEATHER
 
SELECT A DAY
Number of Records: 91,243;   Date Range: 3/3/05 - 5/2/13
 
SHARE

PRINT THIS DATA

[ ← Previous Day ]
WEATHER ALMANAC - JANUARY 23, 2013
[ Next Day → ]
[ °C ]   °F
Weather ElementAverageHighLow
Temperature58.1 °F72 °F (2:53 pm)46.9 °F (6:53 am)
Dewpoint48.6 °F53.1 °F (7:53 pm)42.1 °F (1:53 am)
Humidity73.1 %93 % (5:53 am)43 % (2:53 pm)
Barometer30.30 in30.36 in (9:53 am)30.25 in (3:53 pm)
Wind Speed6.2 mph10.4 mph (1:53 pm)
Wind Gust17.3 mph (11:53 am)
Weather ElementAverage
Visibility8.9 mi
Wind DirectionSSW (187.6 °)

Weather ElementTotal
Precipitation---
Heating Degree Days5.6 (Base 65)
Growing Degree Days9.5 (Base 50)
Averaged from 25 records on January 23, 2013
WEATHER CONDITIONS BREAKOUT
WIND DIRECTION BREAKOUT
WEATHER BY HOUR - JANUARY 23, 2013
[ °C ]   °F
Local TimeTemperatureDewpointHumidityBarometerVisibilityWind DirectionWind SpeedGust SpeedPrecipitationEventsConditions
1:53 AM48.9 °F42.1 °F77 %30.31 in10.0 miSouth (190°)4.6 mphClear
2:53 AM48.9 °F42.1 °F77 %30.30 in10.0 miSouth (190°)4.6 mphClear
3:53 AM48.9 °F42.1 °F77 %30.30 in10.0 miSSW (210°)3.5 mphClear
4:53 AM48.9 °F45.0 °F86 %30.31 in9.0 miSSW (200°)3.5 mphClear
5:53 AM48.9 °F46.9 °F93 %30.32 in4.0 miCalmClear
6:21 AM48.2 °F46.4 °F93 %30.33 in2.5 miSSW (200°)3.5 mphClear
6:44 AM48.2 °F46.4 °F93 %30.33 in4.0 miSouth (180°)3.5 mphClear
6:53 AM46.9 °F45.0 °F93 %30.33 in5.0 miSouth (180°)5.8 mphClear
7:53 AM48.9 °F46.9 °F93 %30.34 in7.0 miSouth (190°)5.8 mphClear
8:53 AM54.0 °F50.0 °F86 %30.35 in10.0 miSouth (190°)6.9 mphClear
9:53 AM60.1 °F52.0 °F75 %30.36 in10.0 miSW (220°)6.9 mphClear
10:53 AM64.0 °F51.1 °F63 %30.36 in10.0 miSouth (190°)8.1 mphClear
11:53 AM66.9 °F51.1 °F57 %30.33 in10.0 miSW (220°)8.1 mph17.3 mphClear
12:53 PM69.1 °F48.0 °F47 %30.30 in10.0 miSW (230°)8.1 mphClear
1:53 PM70.0 °F48.9 °F47 %30.27 in10.0 miSW (220°)10.4 mph17.3 mphPartly Cloudy
2:53 PM72.0 °F48.0 °F43 %30.26 in10.0 miSSW (200°)9.2 mphClear
3:53 PM71.1 °F48.0 °F44 %30.25 in10.0 miSouth (190°)8.1 mphClear
4:53 PM69.1 °F50.0 °F51 %30.25 in10.0 miSouth (190°)6.9 mph17.3 mphScattered Clouds
5:53 PM64.9 °F51.1 °F61 %30.25 in10.0 miSouth (190°)6.9 mphClear
6:53 PM63.0 °F52.0 °F67 %30.25 in10.0 miSouth (190°)8.1 mphClear
7:53 PM61.0 °F53.1 °F75 %30.25 in10.0 miSouth (190°)8.1 mphClear
8:53 PM60.1 °F52.0 °F75 %30.26 in10.0 miSouth (190°)5.8 mphClear
9:53 PM57.9 °F52.0 °F81 %30.27 in10.0 miSouth (170°)6.9 mphClear
10:53 PM55.9 °F52.0 °F87 %30.27 in10.0 miSouth (180°)6.9 mphClear
11:53 PM55.9 °F52.0 °F87 %30.27 in10.0 miSouth (190°)5.8 mphPartly Cloudy
Hourly data recorded from KDNK, located miles away from Simpson, Louisiana







STORIES FROM OUR PARTNERS